Погода в Горностаевке

Украина / Херсонская область     46°31′04″N   34°17′22″E
темп.,
°C
ветер,
м/с
пор.,
м/с
влажн.,
%
обл.,
%
осадки,
мм/ч
давл.,
гПа
погр.,
м
11 апреля, вс
вс1100:00+6с49605 0.0 1024152
03:00+5ссв511595 0.0 1025201
06:00+4ссв411669 0.0 1025195
09:00+10ссв7125187 0.0 1025661
12:00+14ссв8104024 0.0 10231337
15:00+15ссв81038100 0.0 10221469
18:00+14ссв61045100 0.0 1021577
21:00+12ссв51250100 0.0 1022416
12 апреля, пн
пн1200:00+11ссв51058100 0.0 1021394
03:00+10ссв4864100 0.0 1020399
06:00+9с3676100 0.6 1020303
09:00+9ссв3475100 0.6 1020270
12:00+13ююв2263100 0.0 1020921
15:00+14ю1162100 0.0 10191082
18:00+12ю4473100 0.0 1020291
21:00+10ю3580100 0.0 1021222
13 апреля, вт
вт1300:00+9ююв2288100 0.0 102074
03:00+9юв2388100 0.0 1020119
06:00+9юв2389100 0.0 102098
09:00+10ю3384100 0.0 1021354
12:00+12ю3370100 0.0 1021772
15:00+14ю236278 0.0 10201001
18:00+13ю3472100 0.3 1019295
21:00+10ююв3583100 0.3 1020236
14 апреля, ср
ср1400:00+9вюв238622 0.0 1019122
03:00+7юв229294 0.0 101933
06:00+6всв129215 0.0 101811
09:00+11в11765 0.0 1018411
12:00+15ююв5555100 0.2 10171437
15:00+15ююв6650100 0.3 10161226
18:00+13вюв6766100 0.0 1015599
21:00+10вюв598361 0.0 1015295
15 апреля, чт
чт1500:00+9юв597814 0.0 1014333
03:00+7юв3593100 0.0 1014117
06:00+7в369639 0.0 1013113
09:00+12вюв5773100 0.0 1013500
12:00+13ююв6668100 0.0 1013781
15:00+10ю3389100 2.0 1013291
18:00+9ююв3592100 0.8 1012307
21:00+9ююз4795100 1.2 1013443